Tracking 18785 objects as of 24-July-2017
HD Live streaming from Space Station
objects crossing your sky now
MAYAK may become the brightest orbital object in the night sky!
Where is MAYAK now?
How to spot MAYAK

SUCHAI

Track SUCHAI now!
10-day predictions
SUCHAI is classified as:


NORAD ID: 42788
Int'l Code: 2017-036Z
Perigee: 501.6 km
Apogee: 520.1 km
Inclination: 97.4 °
Period: 94.7 minutes
Semi major axis: 6881 km
RCS: Unknown
Launch date: June 23, 2017
Source: Chile (CHLE)
Launch site: SIRHARIKOTA (SRI)
Uplink (MHz):
Downlink (MHz): 437.225
Beacon (MHz): 437.225
Mode: 1200bps AFSK CW
Call sign: SUCHAI
Status: Active

Your satellite tracking list
Your tracking list is empty





NASA's NSSDC Master Catalog

Two Line Element Set (TLE):
1 42788U 17036Z   17204.93552792 +.00001393 +00000-0 +66413-4 0  9992
2 42788 097.4477 264.3426 0013441 140.5887 219.6329 15.20693792004686
Source of the keplerian elements: AFSPC